Date String (YYYY-MM-DD hh:mm:ss) UTC,Instrument flags,absolute air pressure of the measurement (hPa),sample flow rate (lpm),inlet stack bypass flow (lpm),air temperature of the measurement (°C),ambient temperature measured by the external sensor (°C),aerosol sample conditioner tube jacket temperature (°C),OPC LED temperature (°C),internal box temperature (°C),relative humidity of the measurement (%),span deviation,mass concentration of particles derived from Lorenz-Mie calculation of OPC scattering (μg/m³),mass concentration of particles derived from Lorenz-Mie calculation of OPC scattering (μg/m³),mass concentration of particles derived from Lorenz-Mie calculation of OPC scattering (μg/m³)
DateTimeUTC,F1_M11,P_M11,Q1_M11,Q2_M11,T1_M11,T2_M11,T3_M11,T4_M11,T5_M11,U1_M11,ZSPAN_M11,X0_M11,X2_M11,X1_M11
2023-11-28 16:00:00,SystemResetWarning,0833.2,5.00,000.00,019.5,019.0,000.0,027.6,020.8,10.1,0000.0,0004.57,0002.77,0002.23
2023-11-28 16:01:00,SystemResetWarning,0833.2,5.00,000.00,019.5,019.0,000.0,027.6,020.9,10.2,0000.0,0004.52,0002.74,0002.20
2023-11-28 16:02:00,SystemResetWarning,0833.2,5.00,000.00,019.5,019.0,000.0,027.7,020.9,10.8,0000.0,0004.35,0002.67,0002.20
2023-11-28 16:03:00,SystemResetWarning,0833.2,5.00,000.00,019.6,019.0,000.0,027.7,020.9,10.8,0000.0,0004.21,0002.62,0002.19
2023-11-28 16:04:00,SystemResetWarning,0833.2,5.00,000.00,019.6,019.0,000.0,027.7,020.9,10.1,0000.0,0004.07,0002.57,0002.16
2023-11-28 16:05:00,SystemResetWarning,0833.2,5.00,000.00,019.6,019.1,000.0,027.7,020.9,9.0,0000.0,0003.84,0002.50,0002.15
2023-11-28 16:06:00,SystemResetWarning,0833.1,5.00,000.00,019.6,019.1,000.0,027.7,020.9,8.8,0000.0,0003.69,0002.44,0002.12
2023-11-28 16:07:00,SystemResetWarning,0833.1,5.00,000.00,019.6,019.1,000.0,027.7,020.9,9.1,0000.0,0003.71,0002.42,0002.09
2023-11-28 16:08:00,SystemResetWarning,0833.2,5.00,000.00,019.6,019.1,000.0,027.7,021.0,9.6,0000.0,0003.08,0002.36,0002.05
2023-11-28 16:09:00,SystemResetWarning,0833.2,5.00,000.00,019.7,019.1,000.0,027.8,021.0,9.7,0000.0,0003.12,0002.37,0002.04
2023-11-28 16:10:00,SystemResetWarning,0833.2,5.00,000.00,019.7,019.2,000.0,027.8,021.0,9.5,0000.0,0003.14,0002.37,0002.02
2023-11-28 16:11:00,SystemResetWarning,0833.2,5.00,000.00,019.7,019.2,000.0,027.8,021.0,9.5,0000.0,0003.17,0002.29,0001.97
2023-11-28 16:12:00,SystemResetWarning,0833.2,5.00,000.00,019.7,019.2,000.0,027.8,021.1,9.1,0000.0,0003.10,0002.20,0001.91
2023-11-28 16:13:00,SystemResetWarning,0833.2,5.00,000.00,019.8,019.3,000.0,027.8,021.1,9.3,0000.0,0003.05,0002.15,0001.88
2023-11-28 16:14:00,SystemResetWarning,0833.2,5.00,000.00,019.8,019.3,000.0,027.9,021.1,9.9,0000.0,0002.99,0002.12,0001.85
2023-11-28 16:15:00,SystemResetWarning,0833.2,5.00,000.00,019.8,019.3,000.0,027.9,021.2,10.1,0000.0,0002.91,0002.07,0001.83
2023-11-28 16:16:00,SystemResetWarning,0833.2,5.00,000.00,019.8,019.3,000.0,027.9,021.2,10.1,0000.0,0002.94,0002.02,0001.78
2023-11-28 16:17:00,SystemResetWarning,0833.2,5.00,000.00,019.9,019.4,000.0,027.9,021.2,9.1,0000.0,0003.08,0002.02,0001.76
2023-11-28 16:18:00,SystemResetWarning,0833.2,5.00,000.00,019.9,019.4,000.0,027.9,021.3,9.2,0000.0,0002.97,0001.96,0001.72
2023-11-28 16:19:00,SystemResetWarning,0833.2,5.00,000.00,019.9,019.4,000.0,028.0,021.3,9.2,0000.0,0002.91,0001.91,0001.68
2023-11-28 16:20:00,SystemResetWarning,0833.2,5.00,000.00,019.9,019.5,000.0,028.0,021.3,9.8,0000.0,0002.80,0001.85,0001.65
2023-11-28 16:21:00,SystemResetWarning,0833.2,5.00,000.00,020.0,019.5,000.0,028.0,021.3,9.6,0000.0,0002.74,0001.81,0001.62
2023-11-28 16:22:00,SystemResetWarning,0833.2,5.00,000.00,020.0,019.5,000.0,028.0,021.3,9.7,0000.0,0002.65,0001.80,0001.61
2023-11-28 16:23:00,SystemResetWarning,0833.2,4.99,000.00,020.0,019.5,000.0,028.1,021.4,10.2,0000.0,0002.59,0001.82,0001.61
2023-11-28 16:24:00,SystemResetWarning,0833.2,5.00,000.00,020.0,019.6,000.0,028.1,021.4,9.8,0000.0,0002.58,0001.80,0001.58
2023-11-28 16:25:00,SystemResetWarning,0833.2,5.00,000.00,020.1,019.6,000.0,028.1,021.4,10.0,0000.0,0003.59,0001.80,0001.54
2023-11-28 16:26:00,SystemResetWarning,0833.2,5.00,000.00,020.1,019.6,000.0,028.1,021.5,9.8,0000.0,0003.70,0001.80,0001.52
2023-11-28 16:27:00,SystemResetWarning,0833.2,5.00,000.00,020.1,019.6,000.0,028.1,021.5,10.2,0000.0,0003.76,0001.78,0001.50
2023-11-28 16:28:00,SystemResetWarning,0833.2,5.01,000.00,020.1,019.7,000.0,028.2,021.5,10.5,0000.0,0003.58,0001.77,0001.47
2023-11-28 16:29:00,SystemResetWarning,0833.2,5.00,000.00,020.2,019.7,000.0,028.2,021.5,10.6,0000.0,0003.59,0001.76,0001.46
2023-11-28 16:30:00,SystemResetWarning,0833.2,5.01,000.00,020.2,019.7,000.0,028.2,021.6,9.5,0000.0,0003.65,0001.79,0001.46
2023-11-28 16:31:00,SystemResetWarning,0833.2,5.01,000.00,020.2,019.7,000.0,028.2,021.6,9.4,0000.0,0003.75,0001.81,0001.45
2023-11-28 16:32:00,SystemResetWarning,0833.2,5.00,000.00,020.2,019.8,000.0,028.3,021.6,9.3,0000.0,0003.74,0001.79,0001.44
2023-11-28 16:33:00,SystemResetWarning,0833.2,4.99,000.00,020.3,019.8,000.0,028.3,021.7,10.3,0000.0,0003.74,0001.79,0001.43
2023-11-28 16:34:00,SystemResetWarning,0833.2,5.01,000.00,020.3,019.8,000.0,028.3,021.7,10.9,0000.0,0003.79,0001.79,0001.44
2023-11-28 16:35:00,SystemResetWarning,0833.2,5.01,000.00,020.3,019.8,000.0,028.3,021.7,10.4,0000.0,0003.92,0001.82,0001.45
2023-11-28 16:36:00,SystemResetWarning,0833.2,5.01,000.00,020.3,019.9,000.0,028.3,021.8,10.5,0000.0,0003.03,0001.80,0001.46
2023-11-28 16:37:00,SystemResetWarning,0833.2,5.00,000.00,020.4,019.9,000.0,028.4,021.8,10.6,0000.0,0002.71,0001.78,0001.46
2023-11-28 16:38:00,SystemResetWarning,0833.3,5.00,000.00,020.4,019.9,000.0,028.4,021.8,10.5,0000.0,0002.70,0001.82,0001.48
2023-11-28 16:39:00,SystemResetWarning,0833.3,5.00,000.00,020.4,019.9,000.0,028.4,021.8,10.3,0000.0,0002.75,0001.87,0001.52
2023-11-28 16:40:00,SystemResetWarning,0833.3,5.00,000.00,020.4,020.0,000.0,028.4,021.9,10.1,0000.0,0002.80,0001.92,0001.56
2023-11-28 16:41:00,SystemResetWarning,0833.2,5.00,000.00,020.5,020.0,000.0,028.5,021.9,8.9,0000.0,0002.75,0001.91,0001.58
2023-11-28 16:42:00,SystemResetWarning,0833.3,5.00,000.00,020.5,020.0,000.0,028.5,021.9,8.9,0000.0,0003.22,0001.93,0001.60
2023-11-28 16:43:00,SystemResetWarning,0833.3,5.00,000.00,020.5,020.0,000.0,028.5,021.9,9.9,0000.0,0003.90,0001.96,0001.63
2023-11-28 16:44:00,SystemResetWarning,0833.2,5.00,000.00,020.5,020.0,000.0,028.5,021.9,9.3,0000.0,0004.05,0002.00,0001.66
2023-11-28 16:45:00,SystemResetWarning,0833.2,5.00,000.00,020.6,020.1,000.0,028.6,021.9,8.9,0000.0,0004.09,0002.04,0001.69
2023-11-28 16:46:00,SystemResetWarning,0833.3,5.01,000.00,020.6,020.1,000.0,028.6,021.9,9.2,0000.0,0004.04,0002.06,0001.71
2023-11-28 16:47:00,SystemResetWarning,0833.4,5.00,000.00,020.6,020.1,000.0,028.6,021.9,9.6,0000.0,0004.19,0002.15,0001.75
2023-11-28 16:48:00,SystemResetWarning,0833.4,5.00,000.00,020.6,020.1,000.0,028.6,022.0,9.5,0000.0,0004.35,0002.25,0001.80
2023-11-28 16:49:00,SystemResetWarning,0833.4,5.00,000.00,020.6,020.1,000.0,028.7,022.0,10.0,0000.0,0004.35,0002.28,0001.84
2023-11-28 16:50:00,SystemResetWarning,0833.4,5.00,000.00,020.7,020.1,000.0,028.7,022.0,9.7,0000.0,0004.34,0002.30,0001.88
2023-11-28 16:51:00,SystemResetWarning,0833.4,5.00,000.00,020.7,020.2,000.0,028.7,022.1,9.1,0000.0,0004.40,0002.34,0001.91
2023-11-28 16:52:00,SystemResetWarning,0833.4,5.00,000.00,020.7,020.2,000.0,028.7,022.1,9.0,0000.0,0004.51,0002.40,0001.95
2023-11-28 16:53:00,SystemResetWarning,0833.4,5.00,000.00,020.7,020.2,000.0,028.8,022.1,9.1,0000.0,0004.06,0002.37,0001.97
2023-11-28 16:54:00,SystemResetWarning,0833.3,5.00,000.00,020.8,020.2,000.0,028.8,022.1,9.7,0000.0,0003.39,0002.39,0001.97
2023-11-28 16:55:00,SystemResetWarning,0833.3,5.00,000.00,020.8,020.3,000.0,028.8,022.2,10.0,0000.0,0003.36,0002.41,0001.98
2023-11-28 16:56:00,SystemResetWarning,0833.3,5.00,000.00,020.8,020.3,000.0,028.8,022.2,10.0,0000.0,0003.40,0002.43,0001.98
2023-11-28 16:57:00,SystemResetWarning,0833.3,4.99,000.00,020.8,020.3,000.0,028.8,022.2,10.5,0000.0,0003.53,0002.46,0002.00
2023-11-28 16:58:00,SystemResetWarning,0833.4,5.00,000.00,020.8,020.3,000.0,028.9,022.3,10.5,0000.0,0003.70,0002.46,0002.01
2023-11-28 16:59:00,SystemResetWarning,0833.4,5.00,000.00,020.9,020.3,000.0,028.9,022.3,10.1,0000.0,0003.63,0002.42,0001.99
